Temp
86 85 85 85 85 85 85 85 85 85 84 84 83 83 83 83 85 84 84 83 83 83 83 82 82 81 82 81 80 81 79 80 80 79 79 79 78 79 79 80 79 78
86 86 85 86 85 85 85 86 85 84 84 84 84 84 84 84 85 85 84 83 83 83 83 83 82 81 80 80 80 79 78 80 79 82 78 79 78 79 80 80 80 80
86 86 86 86 86 86 88 87 86 86 85 86 85 85 85 86 85 85 84 84 82 84 82 82 82 80 80 80 79 79 79 78 78 81 79 78 78 78 79 82 80 80
86 86 87 87 87 86 87 86 86 86 86 85 85 86 86 86 85 85 84 84 82 82 83 83 82 81 80 80 79 78 79 78 78 79 79 78 78 79 79 79 80 80
86 86 87 87 87 87 87 86 87 87 87 86 87 86 84 84 84 85 84 84 82 83 82 82 82 81 80 79 79 77 78 78 78 78 77 77 78 78 79 79 78 78
87 87 86 87 87 86 86 87 87 87 87 87 85 87 86 85 84 84 84 84 84 84 83 83 82 82 81 79 79 78 78 79 79 78 77 77 78 79 80 78 77 76
87 87 87 88 88 87 86 86 87 86 87 87 86 85 86 85 84 83 83 83 84 82 83 81 80 80 80 79 77 77 77 77 78 77 77 76 77 77 79 78 77 76
88 89 88 87 88 87 87 87 87 87 86 86 86 86 86 86 84 85 84 83 84 82 81 81 80 79 81 79 77 77 77 79 78 77 76 76 76 76 76 78 77 76
89 88 88 87 88 88 89 89 89 88 87 86 87 88 86 86 85 85 83 82 82 81 80 80 79 79 79 79 77 77 76 77 78 78 77 77 76 76 77 77 76 75
88 88 89 90 90 89 90 90 90 89 88 88 88 89 86 85 85 84 83 81 81 80 80 79 79 79 79 79 77 77 76 76 77 77 77 77 77 77 77 76 75 74
90 90 89 89 90 90 90 91 91 91 89 89 88 88 87 86 84 84 83 81 81 80 79 79 80 79 78 79 78 78 77 77 77 77 77 77 77 77 77 75 74 74
89 90 90 89 90 91 91 91 92 91 90 89 89 88 88 87 85 84 83 81 81 81 80 79 79 79 78 79 79 79 77 78 78 78 77 77 77 77 76 76 75 74
90 89 89 90 89 90 91 91 92 93 92 89 89 89 88 88 86 84 83 82 81 81 81 80 79 79 78 78 78 78 77 77 78 77 77 77 77 77 77 76 75 74
90 89 88 89 90 88 89 90 91 91 89 89 88 88 89 89 88 85 84 83 82 81 80 80 79 79 78 78 78 78 78 77 77 77 77 77 76 77 77 77 75 74
89 89 89 88 88 87 87 88 89 88 89 88 87 88 89 90 89 87 84 82 82 81 80 81 80 79 79 79 78 78 78 78 77 77 77 76 75 76 76 75 74 75
88 88 88 88 87 87 86 87 88 88 89 88 86 87 87 87 87 86 85 83 81 81 81 80 80 80 74 69 73 78 77 78 77 77 76 75 74 74 74 74 74 75
88 88 88 87 87 87 86 86 86 88 87 86 86 86 86 85 86 86 86 84 82 81 81 80 80 79 68 66 69 72 76 77 76 76 75 74 74 73 72 72 73 74
88 88 87 87 87 87 86 86 87 86 86 86 85 85 84 86 85 85 84 84 83 82 81 80 80 71 65 66 68 69 72 77 77 76 75 74 74 73 72 73 72 73
88 88 87 87 87 86 86 85 85 85 85 85 84 85 84 83 83 83 83 83 82 81 80 81 81 66 63 64 66 67 68 75 76 75 74 73 73 72 71 71 71 70
88 88 87 86 86 85 85 84 84 84 85 86 85 84 82 82 83 82 81 81 81 80 79 80 80 62 63 63 64 64 66 72 75 74 73 73 72 71 71 71 71 70
88 86 85 84 84 84 83 83 83 83 84 84 84 83 81 81 81 81 80 80 80 80 79 78 74 59 61 61 61 63 65 71 72 71 70 71 71 71 71 71 71 70
87 86 84 83 83 83 82 82 82 82 82 83 83 83 83 82 81 82 81 80 80 79 76 72 66 59 60 60 60 62 65 72 72 70 70 70 70 71 71 71 71 70
86 85 84 83 83 82 82 82 81 81 82 83 82 82 82 81 81 80 80 80 78 76 74 68 64 60 59 58 59 61 65 71 70 70 68 69 69 70 71 72 71 71
85 85 84 84 83 83 82 82 82 82 82 82 81 80 80 81 81 80 80 79 77 76 74 69 67 60 56 56 57 60 65 70 69 69 68 68 68 69 71 71 72 73
85 85 84 84 83 83 83 82 82 81 82 81 81 81 78 76 77 77 76 76 76 75 68 68 66 60 55 58 58 58 66 70 69 68 68 68 68 69 71 71 71 72
85 84 84 84 84 83 82 81 81 81 80 80 79 79 78 76 75 75 73 73 72 70 69 69 66 64 60 56 56 57 62 71 70 68 68 69 70 70 69 70 70 70
MSLP
1009.43 1009.71 1010.11 1010.43 1010.71 1010.95 1011.23 1011.63 1011.75 1012.07 1012.23 1012.39 1012.83 1012.91 1012.99 1013.03 1012.91 1013.07 1013.35 1013.63 1013.83 1013.99 1014.07 1014.19 1014.31 1014.51 1014.63 1014.79 1014.99 1015.15 1015.39 1015.47 1015.59 1015.71 1015.95 1016.23 1016.59 1016.79 1016.95 1016.99 1017.03 1017.15
1009.15 1009.35 1009.67 1009.99 1010.39 1010.59 1010.79 1010.95 1011.31 1011.59 1011.87 1011.99 1012.19 1012.43 1012.51 1012.67 1012.71 1012.79 1013.07 1013.31 1013.39 1013.55 1013.59 1013.83 1013.99 1014.19 1014.47 1014.75 1014.91 1015.27 1015.51 1015.59 1015.79 1015.59 1016.03 1016.23 1016.43 1016.55 1016.75 1016.75 1016.87 1016.87
1008.79 1009.11 1009.43 1009.87 1010.19 1010.39 1010.51 1010.55 1010.79 1011.07 1011.39 1011.59 1011.75 1011.99 1012.23 1012.19 1012.47 1012.47 1012.55 1012.71 1012.95 1013.03 1013.23 1013.47 1013.79 1014.07 1014.39 1014.71 1014.91 1015.19 1015.43 1015.55 1015.79 1015.67 1015.91 1016.23 1016.31 1016.55 1016.63 1016.59 1016.79 1016.95
1008.35 1008.59 1008.99 1009.31 1009.59 1009.95 1010.07 1010.35 1010.51 1010.71 1010.99 1011.43 1011.63 1011.59 1011.75 1011.83 1011.91 1012.07 1012.07 1012.07 1012.43 1012.63 1012.83 1013.23 1013.63 1013.99 1014.35 1014.59 1014.83 1015.19 1015.31 1015.43 1015.47 1015.51 1015.79 1015.91 1016.07 1016.35 1016.55 1016.59 1016.71 1016.83
1007.91 1008.27 1008.55 1008.87 1009.07 1009.35 1009.63 1010.03 1010.23 1010.47 1010.79 1010.99 1011.07 1011.07 1011.31 1011.43 1011.51 1011.55 1011.59 1011.71 1011.99 1012.39 1012.75 1013.15 1013.47 1013.91 1014.27 1014.59 1014.71 1015.11 1015.23 1015.47 1015.47 1015.55 1015.79 1015.99 1015.91 1016.07 1016.27 1016.47 1016.75 1016.91
1007.47 1007.79 1008.11 1008.51 1008.71 1008.99 1009.35 1009.59 1009.79 1010.07 1010.31 1010.55 1010.63 1010.55 1010.71 1010.83 1010.99 1011.03 1011.23 1011.63 1011.91 1012.27 1012.71 1013.03 1013.39 1013.67 1014.03 1014.47 1014.75 1014.99 1015.19 1015.43 1015.47 1015.51 1015.71 1015.91 1015.87 1015.75 1015.95 1016.19 1016.47 1016.75
1007.19 1007.51 1007.87 1008.03 1008.35 1008.51 1008.87 1009.15 1009.35 1009.47 1009.63 1009.75 1009.95 1010.23 1010.23 1010.47 1010.67 1010.87 1011.19 1011.51 1011.79 1012.07 1012.35 1012.79 1013.23 1013.55 1013.75 1014.15 1014.59 1014.91 1014.95 1015.11 1015.23 1015.43 1015.63 1015.71 1015.79 1015.87 1015.79 1015.99 1016.27 1016.55
1006.71 1007.03 1007.39 1007.67 1007.95 1008.15 1008.51 1008.79 1008.91 1008.99 1009.11 1009.35 1009.67 1009.63 1009.71 1010.03 1010.35 1010.63 1010.95 1011.35 1011.71 1011.99 1012.19 1012.47 1012.83 1013.23 1013.47 1013.87 1014.35 1014.63 1014.79 1014.79 1014.95 1015.15 1015.43 1015.55 1015.63 1015.91 1015.87 1015.91 1016.15 1016.47
1006.27 1006.75 1006.99 1007.31 1007.55 1007.79 1008.15 1008.23 1008.35 1008.55 1008.55 1008.91 1009.11 1009.23 1009.27 1009.55 1009.99 1010.31 1010.63 1010.99 1011.35 1011.67 1011.95 1012.23 1012.51 1012.83 1013.07 1013.51 1013.99 1014.27 1014.51 1014.63 1014.63 1014.79 1015.03 1015.27 1015.47 1015.63 1015.67 1015.71 1015.99 1016.27
1005.99 1006.23 1006.59 1006.79 1007.11 1007.27 1007.51 1007.55 1007.75 1007.99 1008.15 1008.47 1008.63 1008.71 1009.07 1009.23 1009.55 1009.91 1010.19 1010.55 1010.95 1011.31 1011.55 1011.79 1012.07 1012.31 1012.59 1012.95 1013.43 1013.79 1014.11 1014.35 1014.43 1014.51 1014.67 1014.83 1015.03 1015.23 1015.43 1015.59 1015.79 1016.07
1005.55 1005.75 1006.11 1006.23 1006.51 1006.63 1006.83 1006.99 1007.19 1007.43 1007.67 1007.99 1008.15 1008.31 1008.47 1008.87 1009.19 1009.35 1009.79 1010.19 1010.51 1010.79 1011.11 1011.43 1011.63 1011.87 1012.23 1012.51 1012.79 1013.15 1013.55 1013.83 1014.07 1014.19 1014.31 1014.51 1014.71 1014.91 1015.07 1015.31 1015.55 1015.79
1005.03 1005.19 1005.39 1005.63 1005.83 1005.99 1006.23 1006.35 1006.55 1006.83 1007.15 1007.39 1007.55 1007.91 1008.11 1008.39 1008.75 1008.99 1009.27 1009.71 1009.99 1010.23 1010.55 1010.95 1011.19 1011.47 1011.79 1012.03 1012.31 1012.67 1013.07 1013.39 1013.59 1013.79 1013.95 1014.19 1014.35 1014.55 1014.75 1014.99 1015.35 1015.55
1004.43 1004.51 1004.59 1004.91 1005.15 1005.39 1005.55 1005.79 1006.03 1006.15 1006.47 1006.83 1006.91 1007.31 1007.75 1008.03 1008.27 1008.59 1008.83 1009.23 1009.63 1009.91 1010.23 1010.55 1010.87 1011.15 1011.47 1011.75 1012.03 1012.39 1012.75 1013.07 1013.31 1013.47 1013.67 1013.83 1013.99 1014.23 1014.43 1014.75 1015.03 1015.19
1003.63 1003.59 1003.91 1004.23 1004.47 1004.83 1005.07 1005.23 1005.43 1005.67 1005.87 1006.11 1006.55 1007.07 1007.31 1007.47 1007.83 1008.23 1008.51 1008.87 1009.27 1009.55 1009.83 1010.15 1010.55 1010.87 1011.19 1011.47 1011.79 1012.07 1012.39 1012.75 1012.95 1013.19 1013.39 1013.55 1013.79 1013.99 1014.19 1014.47 1014.75 1015.03
1002.95 1003.15 1003.39 1003.79 1004.07 1004.47 1004.75 1004.91 1004.99 1005.19 1005.43 1005.79 1006.23 1006.63 1006.83 1007.03 1007.27 1007.75 1008.39 1008.79 1008.99 1009.27 1009.63 1009.87 1010.19 1010.47 1010.67 1011.03 1011.47 1011.75 1011.91 1012.31 1012.55 1012.79 1012.99 1013.31 1013.59 1013.79 1013.99 1014.23 1014.51 1014.79
1002.55 1002.83 1003.19 1003.43 1003.83 1004.15 1004.35 1004.51 1004.67 1004.95 1005.23 1005.63 1005.99 1006.23 1006.51 1006.79 1006.99 1007.43 1008.07 1008.55 1008.95 1009.23 1009.43 1009.63 1009.83 1009.95 1010.19 1010.51 1010.79 1011.15 1011.51 1011.79 1012.07 1012.31 1012.51 1012.87 1013.31 1013.63 1013.91 1014.07 1014.31 1014.59
1002.23 1002.59 1002.79 1003.27 1003.47 1003.75 1004.07 1004.39 1004.67 1004.87 1005.23 1005.55 1005.87 1006.15 1006.43 1006.67 1006.95 1007.35 1007.75 1008.19 1008.67 1008.99 1009.27 1009.43 1009.55 1009.71 1010.03 1010.35 1010.59 1010.79 1011.07 1011.31 1011.59 1011.95 1012.31 1012.75 1013.11 1013.51 1013.87 1014.11 1014.35 1014.55
1001.79 1002.15 1002.63 1002.95 1003.23 1003.67 1003.95 1004.23 1004.59 1004.95 1005.35 1005.63 1005.95 1006.27 1006.47 1006.59 1007.07 1007.31 1007.51 1007.87 1008.31 1008.67 1009.03 1009.11 1009.27 1009.39 1009.79 1010.15 1010.43 1010.67 1010.91 1011.27 1011.59 1011.99 1012.35 1012.75 1013.07 1013.43 1013.79 1014.15 1014.47 1014.67
1001.35 1001.87 1002.35 1002.75 1003.11 1003.43 1003.83 1004.27 1004.67 1005.11 1005.43 1005.79 1006.27 1006.31 1006.55 1006.95 1007.15 1007.35 1007.59 1007.71 1007.99 1008.31 1008.67 1008.87 1009.07 1009.27 1009.75 1010.15 1010.51 1010.79 1011.11 1011.27 1011.63 1011.99 1012.51 1012.91 1013.15 1013.39 1013.75 1014.15 1014.47 1014.79
1001.07 1001.63 1002.23 1002.67 1003.03 1003.47 1003.95 1004.51 1004.91 1005.27 1005.43 1005.59 1005.99 1006.39 1006.83 1007.15 1007.19 1007.51 1007.63 1007.79 1007.91 1008.11 1008.39 1008.55 1008.83 1009.19 1009.63 1010.07 1010.51 1010.99 1011.23 1011.15 1011.55 1011.95 1012.39 1012.87 1013.15 1013.43 1013.71 1013.99 1014.27 1014.59
1000.95 1001.59 1002.31 1002.87 1003.19 1003.63 1004.15 1004.63 1005.03 1005.35 1005.63 1005.79 1006.07 1006.51 1006.99 1007.35 1007.51 1007.71 1007.79 1007.87 1007.99 1008.15 1008.47 1008.67 1008.99 1009.51 1009.87 1010.31 1010.63 1010.79 1011.11 1011.35 1011.83 1012.23 1012.55 1012.75 1013.03 1013.31 1013.47 1013.79 1014.11 1014.35
1000.83 1001.59 1002.27 1002.79 1003.35 1003.79 1004.35 1004.83 1005.23 1005.55 1005.91 1005.99 1006.27 1006.55 1006.79 1007.11 1007.39 1007.51 1007.79 1007.99 1008.07 1008.23 1008.63 1009.07 1009.39 1009.51 1009.91 1010.35 1010.67 1010.95 1011.23 1011.67 1012.03 1012.39 1012.75 1012.99 1013.03 1013.07 1013.27 1013.55 1013.79 1014.07
1000.83 1001.51 1002.31 1002.83 1003.35 1003.95 1004.51 1004.95 1005.35 1005.67 1005.83 1005.87 1006.43 1006.67 1006.95 1007.19 1007.39 1007.43 1007.39 1007.63 1007.91 1008.23 1008.67 1009.19 1009.63 1009.63 1009.75 1010.27 1010.67 1010.87 1011.27 1011.71 1012.03 1012.39 1012.91 1013.27 1013.39 1013.31 1013.43 1013.59 1013.75 1013.87
1000.87 1001.43 1002.23 1002.79 1003.27 1003.83 1004.27 1004.63 1004.91 1005.07 1005.31 1005.39 1005.95 1006.27 1006.55 1006.71 1006.83 1007.03 1007.15 1007.39 1007.83 1008.23 1008.47 1009.19 1009.67 1009.95 1010.07 1010.23 1010.51 1010.91 1011.23 1011.67 1012.07 1012.59 1013.11 1013.35 1013.39 1013.43 1013.43 1013.51 1013.55 1013.55
1000.75 1001.35 1001.99 1002.51 1002.99 1003.31 1003.75 1004.27 1004.47 1004.67 1004.75 1004.91 1005.27 1005.63 1006.35 1006.83 1007.15 1007.47 1007.55 1007.55 1007.71 1008.07 1008.55 1009.07 1009.63 1010.19 1010.15 1010.11 1010.39 1010.83 1011.19 1011.59 1011.99 1012.35 1012.87 1013.07 1013.23 1013.35 1013.31 1013.35 1013.39 1013.31
1000.67 1001.31 1001.79 1002.23 1002.71 1003.07 1003.51 1003.95 1004.15 1004.43 1004.71 1004.83 1005.03 1005.23 1005.71 1006.39 1007.19 1007.67 1008.07 1008.19 1008.27 1008.55 1008.91 1009.19 1009.79 1010.27 1010.43 1010.43 1010.67 1010.91 1011.07 1011.35 1011.71 1012.19 1012.59 1012.79 1012.87 1013.03 1013.27 1013.19 1013.15 1013.11
Wind_Speed
10 9 10 9 8 8 7 8 7 7 7 7 8 7 7 6 5 6 8 8 7 6 5 5 5 5 4 5 3 3 2 3 4 6 5 5 6 5 4 5 3 2
12 11 9 9 8 8 7 8 8 8 8 7 7 7 6 8 7 7 8 10 9 9 7 8 7 6 6 4 4 5 4 2 3 3 6 5 3 5 5 3 2 1
13 12 12 11 10 10 11 8 8 8 8 7 7 7 7 7 8 7 9 10 11 11 10 9 7 7 6 5 5 5 6 5 5 3 5 5 4 2 2 3 3 4
14 13 12 12 11 10 9 9 8 8 8 8 8 8 8 7 9 10 9 12 12 11 10 9 8 8 7 6 6 6 6 6 5 4 4 5 5 3 2 2 2 2
15 13 12 11 10 10 9 10 11 10 9 9 9 9 10 10 11 11 11 11 10 9 8 9 8 8 8 7 6 6 6 6 5 5 4 3 5 6 4 2 2 2
14 13 12 11 11 10 11 11 11 11 11 12 12 10 11 12 12 12 12 11 9 9 8 9 9 8 9 8 6 6 6 6 6 6 6 4 3 5 5 6 6 4
15 14 14 12 13 12 11 11 10 10 12 11 11 11 11 12 13 12 10 10 10 9 10 9 9 9 8 8 7 7 6 6 6 7 6 5 5 5 4 3 4 4
16 14 14 12 14 13 12 11 12 11 11 11 13 13 13 14 12 12 10 10 10 10 9 10 10 9 9 9 9 9 8 7 6 8 8 7 6 5 4 3 3 2
15 14 14 15 16 14 17 16 14 13 11 13 13 13 12 12 12 12 11 11 10 10 10 10 10 11 9 9 10 10 10 8 8 7 7 8 8 8 7 5 4 4
15 14 18 19 18 16 19 18 16 15 13 13 13 12 13 12 12 12 12 12 12 12 12 12 12 12 12 11 12 11 10 9 8 8 7 6 6 6 6 6 6 5
18 18 18 19 19 17 20 19 18 16 14 15 15 14 13 12 12 12 12 13 13 13 13 13 13 13 13 13 12 11 11 10 9 8 8 7 7 6 6 6 6 7
18 19 20 20 20 19 20 19 18 16 15 15 15 15 14 13 13 12 12 13 13 13 13 13 12 13 13 13 13 12 11 11 10 9 9 8 8 8 7 6 6 6
20 19 17 19 18 16 15 16 17 17 18 17 16 16 15 14 13 13 11 12 13 13 13 13 12 13 12 12 11 11 11 11 11 10 8 8 7 8 8 6 5 5
19 18 17 16 15 14 14 15 15 15 15 13 13 15 16 15 14 13 12 12 13 13 12 12 12 12 12 12 11 11 11 11 11 10 10 8 7 7 7 6 5 4
16 14 14 14 14 13 14 14 15 14 12 12 12 13 12 13 12 12 11 11 12 12 12 12 12 12 11 12 12 12 11 11 11 10 10 9 8 8 7 6 5 3
15 13 13 13 14 14 14 14 13 13 12 11 12 13 11 9 9 10 11 12 11 12 12 11 11 10 13 18 15 12 11 10 10 10 10 9 9 8 7 6 5 4
14 13 13 13 13 13 12 12 12 10 9 8 9 9 10 9 7 9 11 11 11 11 13 11 10 10 16 17 18 17 13 11 11 10 8 8 9 8 7 6 4 3
15 14 13 13 12 12 10 9 8 8 7 6 5 5 6 6 6 6 6 8 9 11 12 11 11 13 17 18 17 17 14 9 8 8 8 8 7 7 6 5 4 3
14 14 13 12 11 10 8 7 7 7 7 6 6 4 5 6 5 5 6 7 8 10 11 10 11 12 16 17 17 15 12 9 6 6 6 6 6 6 6 5 4 4
14 12 12 10 9 8 8 8 7 7 6 6 5 4 4 5 5 6 5 6 6 7 8 8 8 12 18 18 16 14 12 9 6 7 7 6 6 6 5 5 5 5
13 12 10 9 10 9 8 7 6 5 5 4 4 4 5 4 5 5 5 5 6 5 3 3 4 12 14 15 15 16 13 10 7 7 7 6 6 6 5 5 5 6
12 12 10 10 10 9 8 6 5 4 4 4 3 2 3 4 4 4 5 4 3 3 3 6 6 17 17 17 16 16 15 8 6 6 6 5 5 5 6 5 5 6
12 12 11 10 10 9 8 7 6 5 5 4 4 3 3 3 4 6 6 6 5 6 7 6 6 13 18 18 15 16 11 6 7 6 5 3 3 2 3 5 5 6
11 12 11 11 10 10 10 8 7 6 6 7 6 5 5 3 2 3 4 4 6 8 8 8 8 11 17 17 17 14 9 7 6 6 6 7 5 5 5 6 7 12
11 11 10 10 10 10 10 10 9 8 6 6 6 5 5 6 4 4 4 3 4 6 11 10 8 10 16 17 16 14 11 7 7 7 7 7 6 6 6 5 5 9
11 11 10 10 10 10 9 7 6 6 7 7 7 6 7 7 6 5 5 5 6 8 8 9 10 8 12 16 15 16 16 10 7 8 8 7 7 7 6 6 7 6
Wind_Direction
184 180 185 184 182 179 178 171 169 173 175 168 176 180 168 184 200 171 157 169 171 194 171 179 189 184 178 173 169 177 212 162 165 158 170 162 166 212 214 206 218 203
185 183 181 182 178 176 177 172 171 177 177 175 176 164 180 172 203 166 171 167 177 184 186 193 189 174 174 183 165 165 191 189 181 166 164 172 192 192 216 223 209 218
185 185 184 181 182 178 182 179 177 177 175 179 166 166 179 170 183 190 177 175 180 186 188 192 180 168 174 183 171 178 178 190 183 200 154 174 174 205 255 229 196 202
186 188 185 184 181 177 177 181 182 181 172 175 177 170 177 182 184 195 194 186 182 189 184 183 176 169 179 185 176 181 188 182 189 192 192 167 169 187 217 239 283 263
186 186 183 183 180 173 178 183 190 181 180 177 185 181 177 188 188 197 197 196 190 186 173 176 173 171 178 190 183 182 185 182 191 189 200 173 167 172 185 212 240 283
186 185 182 181 178 176 180 188 188 183 182 184 189 191 187 189 195 199 194 193 192 183 177 175 178 177 177 181 188 184 188 188 193 196 184 198 193 177 187 188 199 205
184 184 182 179 180 180 182 185 190 187 188 190 187 193 195 195 195 199 193 192 190 189 182 177 177 183 177 175 181 189 188 197 187 192 195 187 197 204 202 167 156 163
186 183 182 181 184 182 182 186 193 196 188 191 194 195 195 198 196 197 194 188 190 184 182 176 176 181 177 171 180 186 193 192 201 187 194 191 186 202 212 190 164 160
183 184 182 184 187 183 189 193 196 196 194 196 197 197 197 196 194 196 192 188 188 181 179 178 177 179 179 174 180 187 190 194 203 203 194 188 186 193 191 170 167 179
184 183 187 189 191 189 192 197 197 196 195 199 200 201 197 197 194 195 192 187 186 181 183 183 181 180 181 180 181 185 188 193 201 201 199 196 192 182 172 169 176 184
187 187 190 191 190 191 194 196 199 198 195 198 202 205 200 195 196 194 193 189 189 185 184 185 185 181 182 184 182 183 186 193 199 197 193 194 201 191 182 184 193 202
188 192 193 194 192 193 194 197 199 198 195 196 201 204 199 197 196 195 193 192 192 186 185 185 185 184 184 186 183 183 185 191 199 196 188 195 189 181 181 186 186 191
190 193 194 194 193 193 194 196 201 201 200 198 198 202 201 201 196 196 190 192 190 186 186 186 184 185 186 187 185 186 185 190 197 195 192 193 181 178 183 184 184 184
195 195 192 193 193 192 193 196 199 201 202 196 194 201 203 204 201 195 190 189 190 190 186 184 185 186 187 186 187 190 184 189 194 192 193 185 175 180 183 178 170 183
195 196 194 192 190 191 194 196 198 201 202 193 188 200 206 207 205 194 186 187 190 188 185 187 190 189 188 186 187 190 185 186 190 189 186 178 179 179 171 154 156 160
191 193 192 193 193 193 196 197 198 200 202 195 191 197 202 204 206 178 189 188 186 186 188 191 193 192 189 186 186 186 185 186 189 190 184 177 176 178 166 163 172 179
186 192 190 193 195 196 194 195 199 200 200 193 195 198 203 200 196 183 189 187 187 186 190 194 195 194 185 184 185 184 184 189 189 183 176 170 175 178 170 162 161 171
184 186 189 191 191 193 188 187 190 193 189 183 183 186 193 188 193 200 186 180 186 192 195 196 196 191 179 181 180 184 186 187 181 169 170 167 166 162 155 150 155 173
179 183 185 185 184 177 168 165 174 183 186 165 169 170 161 193 193 190 193 192 196 197 199 196 205 175 172 174 180 179 184 176 165 157 150 161 152 134 132 142 159 175
173 173 176 171 161 153 148 154 165 178 183 182 158 144 163 175 190 188 187 206 209 209 205 198 205 162 168 174 171 157 166 147 137 131 134 137 132 136 144 152 174 172
165 155 147 133 137 135 136 146 156 159 183 189 181 169 165 176 184 195 197 209 219 217 212 182 117 147 155 150 147 149 139 112 111 120 124 140 148 161 165 166 162 167
155 154 140 134 134 139 135 140 148 165 182 178 168 176 168 167 187 209 211 201 198 196 107 100 133 144 147 152 150 139 129 140 139 143 144 168 161 160 173 174 165 179
142 142 138 140 142 141 145 148 155 175 181 162 170 171 178 179 200 203 198 192 167 140 132 125 142 158 148 145 149 141 135 135 135 132 131 157 190 175 178 183 180 192
139 140 142 147 152 153 147 152 165 163 164 157 165 158 181 211 231 191 182 157 143 153 148 141 149 158 147 144 138 141 146 140 132 131 157 188 198 194 194 195 202 206
144 144 151 155 158 153 155 163 169 159 149 138 144 139 109 95 96 102 102 101 114 109 122 129 135 150 153 151 151 148 157 163 164 164 177 185 184 194 195 197 213 214
144 147 153 162 159 149 149 146 141 149 156 158 147 142 136 112 97 93 89 91 88 113 126 127 137 152 163 156 159 170 179 178 174 178 187 184 189 198 186 196 207 204